�������l�o���
Date,Time,MP-1(��Sv/h),MP-2(��Sv/h),MP-3(��Sv/h),MP-4(��Sv/h),MP-5(��Sv/h),MP-6(��Sv/h),MP-7(��Sv/h),MP-8(��Sv/h),����,����(m/s),���J
2024/05/23,00:00,0.501,0.768,0.483,0.945,0.690,0.314,0.549,0.512,��,7.2,��
2024/05/23,00:10,0.501,0.768,0.484,0.943,0.688,0.315,0.550,0.512,��,7.4,��
2024/05/23,00:20,0.501,0.767,0.483,0.945,0.690,0.313,0.548,0.512,��,7.6,��
2024/05/23,00:30,0.501,0.769,0.484,0.945,0.690,0.314,0.548,0.512,��,7.6,��
2024/05/23,00:40,0.500,0.768,0.483,0.946,0.690,0.313,0.549,0.512,��,7.7,��
2024/05/23,00:50,0.500,0.767,0.482,0.944,0.691,0.313,0.550,0.511,��,8.2,��
2024/05/23,01:00,0.501,0.768,0.485,0.946,0.689,0.314,0.549,0.510,��,7.1,��
2024/05/23,01:10,0.500,0.769,0.483,0.945,0.690,0.314,0.550,0.510,��,6.5,��
2024/05/23,01:20,0.500,0.769,0.483,0.946,0.690,0.314,0.548,0.513,��,6.2,��
2024/05/23,01:30,0.501,0.767,0.483,0.942,0.689,0.314,0.550,0.513,��,7.0,��
2024/05/23,01:40,0.503,0.767,0.484,0.946,0.690,0.315,0.550,0.512,��,6.4,��
2024/05/23,01:50,0.501,0.767,0.484,0.943,0.689,0.314,0.549,0.513,��,6.6,��
2024/05/23,02:00,0.500,0.768,0.484,0.945,0.688,0.314,0.549,0.512,��,6.0,��
2024/05/23,02:10,0.499,0.767,0.483,0.943,0.691,0.313,0.550,0.513,��,6.5,��
2024/05/23,02:20,0.501,0.769,0.484,0.945,0.689,0.313,0.550,0.513,��,7.0,��
2024/05/23,02:30,0.500,0.769,0.485,0.945,0.688,0.314,0.551,0.512,��,6.8,��
2024/05/23,02:40,0.502,0.768,0.483,0.945,0.687,0.314,0.549,0.512,��쐼,6.5,��
2024/05/23,02:50,0.500,0.768,0.484,0.944,0.688,0.315,0.551,0.512,��쐼,6.1,��
2024/05/23,03:00,0.500,0.769,0.484,0.943,0.689,0.315,0.548,0.512,��쐼,6.5,��
2024/05/23,03:10,0.501,0.768,0.484,0.944,0.688,0.315,0.551,0.512,��쐼,6.0,��
2024/05/23,03:20,0.500,0.768,0.483,0.943,0.689,0.315,0.551,0.512,��쐼,5.6,��
2024/05/23,03:30,0.500,0.768,0.483,0.943,0.689,0.315,0.551,0.513,��,6.2,��
2024/05/23,03:40,0.499,0.767,0.484,0.944,0.690,0.315,0.552,0.513,��쐼,5.7,��
2024/05/23,03:50,0.501,0.768,0.483,0.945,0.690,0.314,0.551,0.513,��쐼,5.9,��
2024/05/23,04:00,0.502,0.767,0.483,0.944,0.690,0.316,0.551,0.513,��,6.0,��
2024/05/23,04:10,0.499,0.768,0.484,0.944,0.689,0.316,0.550,0.513,��쐼,5.7,��
2024/05/23,04:20,0.499,0.768,0.484,0.945,0.689,0.315,0.550,0.513,��,6.2,��
2024/05/23,04:30,0.501,0.768,0.483,0.946,0.690,0.315,0.551,0.513,��쐼,5.0,��
2024/05/23,04:40,0.499,0.768,0.485,0.943,0.689,0.315,0.551,0.512,��,5.0,��
2024/05/23,04:50,0.499,0.768,0.483,0.943,0.690,0.315,0.551,0.512,��쐼,4.3,��
2024/05/23,05:00,0.500,0.765,0.484,0.946,0.688,0.314,0.551,0.513,��쐼,4.4,��
2024/05/23,05:10,0.500,0.769,0.483,0.946,0.689,0.315,0.551,0.513,��쐼,3.8,��
2024/05/23,05:20,0.500,0.766,0.484,0.944,0.688,0.315,0.551,0.514,��쐼,3.2,��
2024/05/23,05:30,0.500,0.768,0.482,0.945,0.689,0.313,0.550,0.513,��쐼,2.2,��
2024/05/23,05:40,0.501,0.767,0.484,0.946,0.689,0.314,0.550,0.513,��쐼,2.0,��
2024/05/23,05:50,0.500,0.768,0.486,0.944,0.690,0.314,0.551,0.512,��쐼,2.8,��
2024/05/23,06:00,0.502,0.766,0.482,0.944,0.690,0.315,0.550,0.512,��쐼,3.7,��
2024/05/23,06:10,0.501,0.768,0.483,0.944,0.689,0.314,0.551,0.513,��,2.2,��
2024/05/23,06:20,0.501,0.767,0.484,0.946,0.689,0.315,0.550,0.511,��쓌,1.2,��
2024/05/23,06:30,0.503,0.766,0.484,0.944,0.691,0.315,0.552,0.511,�쓌,0.6,��
2024/05/23,06:40,0.499,0.766,0.483,0.943,0.688,0.314,0.551,0.514,���쓌,0.8,��
2024/05/23,06:50,0.499,0.763,0.484,0.944,0.686,0.313,0.551,0.514,��,1.2,��
2024/05/23,07:00,0.500,0.763,0.483,0.944,0.688,0.312,0.551,0.514,�k�k��,0.6,��
2024/05/23,07:10,0.497,0.764,0.484,0.944,0.688,0.313,0.552,0.513,���k��,1.1,��
2024/05/23,07:20,0.498,0.765,0.484,0.946,0.687,0.314,0.550,0.514,-,CALM,��
2024/05/23,07:30,0.498,0.764,0.483,0.946,0.687,0.313,0.550,0.512,���쓌,0.9,��
2024/05/23,07:40,0.498,0.764,0.483,0.947,0.688,0.312,0.547,0.513,���쓌,1.1,��
2024/05/23,07:50,0.500,0.764,0.483,0.944,0.689,0.313,0.549,0.511,��쓌,1.5,��
2024/05/23,08:00,0.500,0.764,0.484,0.949,0.689,0.314,0.550,0.510,��쓌,4.5,��
2024/05/23,08:10,0.498,0.767,0.484,0.947,0.686,0.314,0.548,0.510,��,4.6,��
2024/05/23,08:20,0.500,0.766,0.485,0.946,0.689,0.314,0.549,0.510,��쓌,4.5,��
2024/05/23,08:30,0.502,0.765,0.482,0.946,0.688,0.313,0.549,0.510,��쓌,6.4,��
2024/05/23,08:40,0.499,0.765,0.484,0.945,0.689,0.313,0.548,0.512,��,6.5,��
2024/05/23,08:50,0.500,0.764,0.484,0.945,0.687,0.314,0.548,0.511,��,6.6,��
2024/05/23,09:00,0.500,0.767,0.482,0.949,0.689,0.314,0.548,0.511,��,6.7,��
2024/05/23,09:10,0.499,0.767,0.484,0.945,0.687,0.314,0.548,0.509,��,7.2,��
2024/05/23,09:20,0.501,0.765,0.483,0.945,0.689,0.314,0.549,0.512,��,6.9,��
2024/05/23,09:30,0.501,0.767,0.484,0.947,0.689,0.313,0.550,0.512,��쓌,6.0,��
2024/05/23,09:40,0.500,0.767,0.484,0.945,0.689,0.314,0.547,0.513,��,6.4,��
2024/05/23,09:50,0.502,0.767,0.483,0.947,0.687,0.314,0.551,0.511,��,6.2,��
2024/05/23,10:00,0.500,0.767,0.482,0.947,0.689,0.314,0.549,0.512,��,7.7,��
2024/05/23,10:10,0.501,0.767,0.483,0.947,0.690,0.314,0.549,0.511,��,8.2,��
2024/05/23,10:20,0.501,0.766,0.481,0.947,0.690,0.314,0.550,0.512,��,9.1,��
2024/05/23,10:30,0.501,0.768,0.481,0.947,0.689,0.315,0.549,0.512,��,9.8,��
2024/05/23,10:40,0.501,0.767,0.482,0.948,0.691,0.315,0.550,0.510,��쓌,9.2,��
2024/05/23,10:50,0.502,0.768,0.484,0.946,0.691,0.313,0.549,0.512,��,10.5,��
2024/05/23,11:00,0.499,0.768,0.485,0.949,0.691,0.314,0.549,0.513,��,9.8,��
2024/05/23,11:10,0.502,0.768,0.485,0.945,0.690,0.314,0.550,0.512,��,11.6,��
2024/05/23,11:20,0.500,0.770,0.483,0.942,0.690,0.314,0.549,0.510,��,10.8,��
2024/05/23,11:30,0.501,0.768,0.484,0.944,0.692,0.315,0.550,0.511,��,10.3,��
2024/05/23,11:40,0.504,0.770,0.484,0.944,0.692,0.314,0.548,0.511,��쓌,8.7,��
2024/05/23,11:50,0.502,0.770,0.485,0.947,0.692,0.315,0.550,0.512,��,10.3,��
2024/05/23,12:00,0.502,0.770,0.484,0.947,0.691,0.316,0.551,0.512,��,9.1,��
2024/05/23,12:10,0.502,0.770,0.484,0.947,0.692,0.314,0.548,0.509,��쓌,10.5,��
2024/05/23,12:20,0.503,0.770,0.485,0.947,0.692,0.313,0.549,0.512,��,10.5,��
2024/05/23,12:30,0.502,0.768,0.485,0.946,0.692,0.314,0.550,0.512,��,10.6,��
2024/05/23,12:40,0.502,0.771,0.484,0.947,0.692,0.316,0.549,0.511,��,11.1,��
2024/05/23,12:50,0.503,0.770,0.485,0.946,0.692,0.316,0.549,0.511,��,12.4,��
2024/05/23,13:00,0.503,0.770,0.486,0.947,0.692,0.315,0.549,0.512,��,11.6,��
2024/05/23,13:10,0.503,0.768,0.484,0.949,0.693,0.315,0.549,0.512,��,9.4,��
2024/05/23,13:20,0.502,0.768,0.485,0.946,0.693,0.317,0.548,0.513,��,10.2,��
2024/05/23,13:30,0.503,0.770,0.485,0.946,0.693,0.315,0.549,0.511,��,9.8,��
2024/05/23,13:40,0.501,0.770,0.485,0.947,0.693,0.315,0.548,0.511,��,8.5,��
2024/05/23,13:50,0.503,0.771,0.485,0.944,0.693,0.315,0.548,0.512,��,8.5,��
2024/05/23,14:00,0.503,0.770,0.487,0.947,0.693,0.314,0.548,0.511,��쓌,10.2,��
2024/05/23,14:10,0.502,0.770,0.484,0.944,0.694,0.314,0.548,0.512,��,11.1,��
2024/05/23,14:20,0.502,0.769,0.484,0.948,0.694,0.315,0.549,0.513,��,11.8,��
2024/05/23,14:30,0.504,0.770,0.484,0.948,0.692,0.315,0.548,0.514,��,10.7,��
2024/05/23,14:40,0.503,0.770,0.485,0.947,0.691,0.315,0.548,0.512,��,10.3,��
2024/05/23,14:50,0.501,0.768,0.484,0.948,0.695,0.314,0.550,0.513,��,10.6,��
2024/05/23,15:00,0.502,0.770,0.485,0.949,0.693,0.315,0.547,0.513,��,9.8,��
2024/05/23,15:10,0.502,0.770,0.484,0.949,0.693,0.315,0.548,0.513,��,10.5,��
2024/05/23,15:20,0.502,0.768,0.484,0.948,0.694,0.315,0.546,0.514,��,11.4,��
2024/05/23,15:30,0.503,0.768,0.486,0.949,0.694,0.314,0.548,0.513,��,10.3,��
2024/05/23,15:40,0.504,0.771,0.485,0.951,0.691,0.316,0.548,0.513,��쓌,10.2,��
2024/05/23,15:50,0.503,0.769,0.484,0.951,0.693,0.316,0.550,0.512,��,9.6,��
2024/05/23,16:00,0.504,0.772,0.485,0.952,0.693,0.316,0.549,0.513,��,9.1,��
2024/05/23,16:10,0.502,0.770,0.485,0.951,0.694,0.315,0.549,0.512,��,9.8,��
2024/05/23,16:20,0.502,0.771,0.486,0.950,0.693,0.316,0.549,0.511,��,7.8,��
2024/05/23,16:30,0.503,0.769,0.484,0.952,0.693,0.314,0.550,0.514,��,8.2,��
2024/05/23,16:40,0.502,0.771,0.486,0.951,0.694,0.315,0.548,0.514,��,8.1,��
2024/05/23,16:50,0.501,0.771,0.486,0.950,0.696,0.316,0.547,0.513,��,8.4,��
2024/05/23,17:00,0.504,0.770,0.485,0.952,0.694,0.314,0.548,0.512,��,9.4,��
2024/05/23,17:10,0.502,0.773,0.484,0.952,0.694,0.315,0.549,0.513,��,9.2,��
2024/05/23,17:20,0.503,0.773,0.486,0.951,0.695,0.313,0.548,0.513,��,8.4,��
2024/05/23,17:30,0.505,0.774,0.486,0.950,0.694,0.314,0.547,0.513,��,9.2,��
2024/05/23,17:40,0.502,0.775,0.486,0.954,0.695,0.315,0.549,0.514,��,8.8,��
2024/05/23,17:50,0.503,0.772,0.486,0.953,0.694,0.317,0.549,0.516,��,7.6,��
2024/05/23,18:00,0.504,0.774,0.486,0.952,0.694,0.316,0.549,0.517,��,7.3,��
2024/05/23,18:10,0.502,0.773,0.487,0.952,0.693,0.314,0.550,0.514,��,7.4,��
2024/05/23,18:20,0.502,0.773,0.486,0.952,0.696,0.316,0.549,0.516,��,6.4,��
2024/05/23,18:30,0.502,0.774,0.485,0.953,0.695,0.315,0.550,0.514,��,7.5,��
2024/05/23,18:40,0.503,0.773,0.486,0.952,0.695,0.314,0.549,0.514,��,6.2,��
2024/05/23,18:50,0.501,0.773,0.487,0.953,0.696,0.316,0.550,0.515,��,7.0,��
2024/05/23,19:00,0.503,0.773,0.488,0.954,0.694,0.316,0.550,0.516,��,7.2,��
2024/05/23,19:10,0.502,0.773,0.485,0.954,0.695,0.316,0.549,0.515,��,7.6,��
2024/05/23,19:20,0.502,0.773,0.485,0.954,0.697,0.315,0.552,0.515,��,6.8,��
2024/05/23,19:30,0.502,0.774,0.486,0.952,0.697,0.314,0.551,0.515,��,5.4,��
2024/05/23,19:40,0.504,0.773,0.487,0.951,0.697,0.315,0.551,0.515,��,4.2,��
2024/05/23,19:50,0.503,0.774,0.487,0.952,0.697,0.316,0.550,0.515,��,4.2,��
2024/05/23,20:00,0.503,0.771,0.488,0.953,0.696,0.317,0.551,0.514,��,4.9,��
2024/05/23,20:10,0.502,0.774,0.487,0.952,0.697,0.315,0.551,0.514,��쐼,5.7,��
2024/05/23,20:20,0.505,0.772,0.488,0.952,0.696,0.316,0.550,0.514,��,6.3,��
2024/05/23,20:30,0.505,0.770,0.489,0.952,0.698,0.317,0.550,0.516,��쐼,7.0,��
2024/05/23,20:40,0.503,0.774,0.488,0.953,0.695,0.317,0.552,0.514,��쐼,6.6,��
2024/05/23,20:50,0.503,0.772,0.489,0.952,0.697,0.316,0.551,0.515,��쐼,6.3,��
2024/05/23,21:00,0.503,0.774,0.488,0.952,0.697,0.317,0.550,0.514,��쐼,6.3,��
2024/05/23,21:10,0.506,0.774,0.488,0.952,0.698,0.315,0.551,0.514,��쐼,6.2,��
2024/05/23,21:20,0.505,0.775,0.488,0.952,0.695,0.317,0.550,0.515,��쐼,5.6,��
2024/05/23,21:30,0.505,0.773,0.487,0.952,0.696,0.316,0.549,0.515,��쐼,3.7,��
2024/05/23,21:40,0.506,0.775,0.488,0.953,0.697,0.316,0.552,0.514,��쐼,3.4,��
2024/05/23,21:50,0.505,0.773,0.487,0.952,0.695,0.316,0.552,0.514,��쐼,3.6,��
2024/05/23,22:00,0.506,0.774,0.486,0.951,0.697,0.317,0.551,0.514,�쐼,2.0,��
2024/05/23,22:10,0.505,0.774,0.486,0.952,0.697,0.316,0.551,0.514,�쐼,1.7,��
2024/05/23,22:20,0.504,0.774,0.487,0.953,0.696,0.316,0.550,0.513,�쐼,2.3,��
2024/05/23,22:30,0.505,0.772,0.486,0.952,0.696,0.318,0.551,0.515,�쐼,2.3,��
2024/05/23,22:40,0.502,0.773,0.488,0.953,0.696,0.316,0.551,0.513,�쐼,2.5,��
2024/05/23,22:50,0.505,0.772,0.487,0.952,0.696,0.317,0.553,0.514,�쐼,3.2,��
2024/05/23,23:00,0.505,0.774,0.488,0.951,0.696,0.316,0.552,0.515,�쐼,2.0,��
2024/05/23,23:10,0.504,0.774,0.489,0.953,0.696,0.318,0.551,0.515,��쐼,1.2,��
2024/05/23,23:20,0.506,0.772,0.488,0.952,0.696,0.317,0.552,0.515,��쐼,0.6,��
2024/05/23,23:30,0.504,0.775,0.488,0.954,0.695,0.318,0.552,0.515,�쐼,0.6,��
2024/05/23,23:40,0.505,0.774,0.487,0.952,0.696,0.317,0.551,0.513,�쐼,1.1,��
2024/05/23,23:50,0.505,0.772,0.486,0.952,0.696,0.316,0.552,0.515,��쐼,2.0,��
